STARLINK-1296, 45412

Orbit data source: Space-Track

STARLINK-1296, 45412 is a payload satellite owned by SpaceX/Seattle (US) in LEO that was launched on Wed, 18 Mar 2020 UTC via an FALCON 9 launch vehicle from the Air Force Eastern Test Range (AFETR). Payload-class satellites include a variety of spacecraft equipped with specific instruments for various scientific and technological missions. These include communications satellites like Starlink; space stations such as the ISS; scientific satellites like the Hubble; Earth observation satellites from companies like Planet Labs, Umbra, and HawkEye 360; GPS; miniature CubeSats for education and research; and military/defense satellites.

Loading next visibility...
Identifier
45412, 2020-019BE
Orbit
LEO
Country
Flag of USUS
Related business
Manufacturer
SpaceX/Seattle
Mission
Partially operational Commercial Communications
Bus & Motor
STARLINK, Unknown motor
Mass
260 kg wet, ~248 kg dry
Launch date (UTC)
2020-03-18 (6 years ago)
Launch vehicle
FALCON 9
Launch site
Air Force Eastern Test Range (AFETR)
Object type
Payload
Rocket body
Debris
Shape & HBR
Box + 1 Pan, 10.1 m
Radar Cross Section
13.562 m², Large (>1 m²)

Expand to show TLE details & history
Last TLE update: 7 hours ago

TLE from 7 hours ago
0 STARLINK-1296
1 45412U 20019BE  26169.95988349  .00041544  00000-0  10473-2 0  9992
2 45412  53.1560  15.5919 0003847 111.2636 248.8780 15.39486418345525
Epoch: 2026-06-18T23:02Z
TLE epoch observation values (Epoch: 2026-06-18T23:02:13.933Z)
Latitude
-0.00001°
Longitude
122.83811°
Altitude
449.477 km
Speed
7.643 km/s
True Right ascension
01h 02m 22s
True Declination
0° 00' 00"
Sunlit
Object was in daylight at epoch
Visualization orbit readout
Latitude
Unknown
Longitude
Unknown
Altitude
Unknown
Speed
Unknown
Apparent Right ascension
Unknown
Apparent Declination
Unknown
Sunlit
N/A
Visualization observer readout
Local Sidereal Time
16:37:30
Azimuth
Unknown
Elevation
Unknown
Doppler factor
Unknown
Orbital elements
Apogee altitude
450.511 km
Perigee altitude
445.259 km
Semi-major axis
6,826.022 km
Eccentricity
0.00038
Inclination
53.156°
RAAN
15.5919°
Arg. of periapsis
111.2636°
True anomaly
248.83689°
Mean anomaly
248.878°
Eccentric anomaly
248.85744°
Mean motion
3.8485 °/min
Orbital period
93.54 mins
BSTAR
0.0010473
Loading maneuver chart data...
Computing Atmospheric mass density...

Documentation

Showing up to 5 results
|